This is the latest recevied weather packets stored in our database for station/object N9CQL. If no packets are shown the sender has not sent any weather packets the latest 10 day(s).
| Time | Temp. | Humidity | Pressure | Rain* | Wind** | Luminosity | Snow |
|---|---|---|---|---|---|---|---|
| 1778068056 | 6.11° C | 77% | 1011.6 hPa | 0 mm | - | 37 W/m² | - |
| 1778067754 | 5.56° C | 78% | 1011.6 hPa | 0 mm | - | 31 W/m² | - |
| 1778067452 | 5.56° C | 78% | 1011.4 hPa | 0 mm | - | 31 W/m² | - |
| 1778067149 | 5° C | 78% | 1011.4 hPa | 0 mm | - | 30 W/m² | - |
| 1778066845 | 5° C | 79% | 1011.4 hPa | 0 mm | - | 25 W/m² | - |
| 1778066543 | 5° C | 79% | 1011.2 hPa | 0 mm | - | 21 W/m² | - |
| 1778066240 | 5° C | 79% | 1011.2 hPa | 0 mm | - | 16 W/m² | - |
| 1778065939 | 4.44° C | 79% | 1011.3 hPa | 0 mm | - | 14 W/m² | - |
| 1778065635 | 4.44° C | 79% | 1011.3 hPa | 0 mm | - | 12 W/m² | - |
| 1778065333 | 4.44° C | 79% | 1011.2 hPa | 0 mm | - | 10 W/m² | - |
| 1778065029 | 4.44° C | 78% | 1011.2 hPa | 0 mm | - | 7 W/m² | - |
| 1778064726 | 4.44° C | 78% | 1011.2 hPa | 0 mm | - | 4 W/m² | - |
| 1778064424 | 4.44° C | 78% | 1011 hPa | 0 mm | - | 2 W/m² | - |
| 1778064121 | 4.44° C | 77% | 1011 hPa | 0 mm | - | 0 W/m² | - |
| 1778063818 | 4.44° C | 77% | 1011 hPa | 0 mm | - | 0 W/m² | - |
| 1778063515 | 4.44° C | 76% | 1010.7 hPa | 0 mm | - | 0 W/m² | - |
| 1778063214 | 4.44° C | 76% | 1010.4 hPa | 0 mm | - | 0 W/m² | - |
| 1778062911 | 4.44° C | 75% | 1010.4 hPa | 0 mm | - | 0 W/m² | - |
| 1778062607 | 4.44° C | 74% | 1010.4 hPa | 0 mm | - | 0 W/m² | - |
| 1778062304 | 4.44° C | 74% | 1010.4 hPa | 0 mm | - | 0 W/m² | - |
| 1778062003 | 4.44° C | 73% | 1010.4 hPa | 0 mm | - | 0 W/m² | - |
| 1778061700 | 5° C | 72% | 1010.6 hPa | 0 mm | - | 0 W/m² | - |
| 1778061399 | 5° C | 71% | 1010.4 hPa | 0 mm | - | 0 W/m² | - |
| 1778061095 | 5° C | 71% | 1010.8 hPa | 0 mm | - | 0 W/m² | - |
| 1778060792 | 5.56° C | 70% | 1010.5 hPa | 0 mm | - | 0 W/m² | - |
* Rain latest hour (hover to see other rain measurements)
** Current wind speed in m/s (hover to see current wind gust speed)